| time (UTC) | temp F | wind direction | speed MPH | gust MPH | rain 1hr in | rain 24hr in | rain mn in | humidity % | barometer mb |
| 20260508060012 | 52 | 52 | 0.0 | 2.0 | 0.00 | 0.00 | 0.00 | 81 | 1017.7 |
| 20260508054508 | 52 | 20 | 0.0 | 2.0 | 0.00 | 0.00 | 0.00 | 79 | 1017.7 |
| 20260508053014 | 53 | 360 | 1.0 | 2.0 | 0.00 | 0.00 | 0.00 | 77 | 1017.7 |
| 20260508051511 | 55 | 134 | 0.0 | 2.0 | 0.00 | 0.00 | 0.00 | 74 | 1017.7 |
| 20260508050015 | 56 | 111 | 1.0 | 3.0 | 0.00 | 0.00 | 0.00 | 72 | 1017.6 |
| 20260508044506 | 57 | 49 | 0.0 | 2.0 | 0.00 | 0.00 | 0.00 | 71 | 1017.5 |
| 20260508043012 | 57 | 107 | 0.0 | 2.0 | 0.00 | 0.00 | 0.00 | 71 | 1017.5 |
| 20260508041513 | 58 | 136 | 1.0 | 3.0 | 0.00 | 0.00 | 0.00 | 68 | 1017.4 |
| 20260508040013 | 59 | 109 | 0.0 | 2.0 | 0.00 | 0.00 | 0.00 | 68 | 1017.2 |
| 20260508034519 | 61 | 126 | 0.0 | 2.0 | 0.00 | 0.00 | 0.00 | 68 | 1016.8 |
| 20260508033011 | 62 | 227 | 0.0 | 2.0 | 0.00 | 0.00 | 0.00 | 68 | 1016.7 |
| 20260508031512 | 64 | 227 | 0.0 | 2.0 | 0.00 | 0.00 | 0.00 | 68 | 1016.6 |
| 20260508030012 | 65 | 177 | 0.0 | 3.0 | 0.00 | 0.00 | 0.00 | 61 | 1016.5 |
| 20260508024513 | 66 | 165 | 1.0 | 2.0 | 0.00 | 0.00 | 0.00 | 63 | 1016.5 |
| 20260508023014 | 67 | 110 | 0.0 | 3.0 | 0.00 | 0.00 | 0.00 | 61 | 1016.6 |
| 20260508021510 | 68 | 81 | 0.0 | 3.0 | 0.00 | 0.00 | 0.00 | 57 | 1016.7 |
| 20260508020019 | 69 | 121 | 3.0 | 7.0 | 0.00 | 0.00 | 0.00 | 56 | 1016.7 |
| 20260508014518 | 71 | 181 | 1.0 | 4.0 | 0.00 | 0.00 | 0.00 | 55 | 1016.6 |
| 20260508013014 | 71 | 40 | 1.0 | 4.0 | 0.00 | 0.00 | 0.00 | 53 | 1016.7 |
| 20260508011510 | 71 | 44 | 1.0 | 4.0 | 0.00 | 0.00 | 0.00 | 53 | 1016.9 |
| 20260508010013 | 72 | 155 | 1.0 | 4.0 | 0.00 | 0.00 | 0.00 | 51 | 1017.0 |
| 20260508004514 | 71 | 64 | 0.0 | 4.0 | 0.00 | 0.00 | 0.00 | 51 | 1016.9 |
| 20260508003024 | 71 | 136 | 2.0 | 4.0 | 0.00 | 0.00 | 0.00 | 49 | 1017.1 |
| 20260508001535 | 72 | 74 | 1.0 | 5.0 | 0.00 | 0.00 | 0.00 | 48 | 1017.3 |
| 20260508000012 | 71 | 61 | 1.0 | 5.0 | 0.00 | 0.00 | 0.00 | 49 | 1017.4 |
| 20260507234516 | 71 | 183 | 2.0 | 5.0 | 0.00 | 0.00 | 0.00 | 54 | 1017.4 |
| 20260507233019 | 71 | 66 | 1.0 | 4.0 | 0.00 | 0.00 | 0.00 | 53 | 1017.5 |
| 20260507231522 | 70 | 78 | 1.0 | 4.0 | 0.00 | 0.00 | 0.00 | 55 | 1017.6 |
| 20260507230019 | 70 | 85 | 1.0 | 4.0 | 0.00 | 0.00 | 0.00 | 53 | 1017.8 |
| 20260507224512 | 70 | 324 | 1.0 | 5.0 | 0.00 | 0.00 | 0.00 | 50 | 1018.1 |
| 20260507223021 | 69 | 186 | 1.0 | 5.0 | 0.00 | 0.00 | 0.00 | 50 | 1018.3 |
| 20260507221522 | 69 | 205 | 2.0 | 6.0 | 0.00 | 0.00 | 0.00 | 52 | 1018.5 |
| 20260507220036 | 69 | 139 | 1.0 | 7.0 | 0.00 | 0.00 | 0.00 | 50 | 1018.8 |
| 20260507214512 | 68 | 42 | 0.0 | 4.0 | 0.00 | 0.00 | 0.00 | 52 | 1018.9 |
| 20260507213017 | 68 | 63 | 2.0 | 4.0 | 0.00 | 0.00 | 0.00 | 53 | 1019.2 |
| 20260507211522 | 68 | 168 | 1.0 | 5.0 | 0.00 | 0.00 | 0.00 | 55 | 1019.3 |
| 20260507210022 | 66 | 209 | 2.0 | 5.0 | 0.00 | 0.00 | 0.00 | 57 | 1019.4 |
| 20260507204521 | 66 | 110 | 1.0 | 4.0 | 0.00 | 0.00 | 0.00 | 55 | 1019.6 |
| 20260507203016 | 65 | 190 | 1.0 | 5.0 | 0.00 | 0.00 | 0.00 | 56 | 1019.8 |
| 20260507201522 | 65 | 32 | 1.0 | 4.0 | 0.00 | 0.00 | 0.00 | 56 | 1020.1 |
| 20260507200022 | 64 | 65 | 2.0 | 6.0 | 0.00 | 0.00 | 0.00 | 58 | 1020.2 |
| 20260507194522 | 64 | 184 | 4.0 | 7.0 | 0.00 | 0.00 | 0.00 | 56 | 1020.3 |
| 20260507193028 | 64 | 53 | 1.0 | 6.0 | 0.00 | 0.00 | 0.00 | 58 | 1020.5 |
| 20260507191521 | 63 | 86 | 2.0 | 6.0 | 0.00 | 0.00 | 0.00 | 62 | 1020.7 |
| 20260507190021 | 62 | 120 | 1.0 | 8.0 | 0.00 | 0.00 | 0.00 | 59 | 1020.8 |
| 20260507184524 | 61 | 225 | 2.0 | 5.0 | 0.00 | 0.00 | 0.00 | 62 | 1020.9 |
| 20260507183026 | 60 | 344 | 2.0 | 5.0 | 0.00 | 0.00 | 0.00 | 63 | 1021.0 |
| 20260507181525 | 59 | 333 | 1.0 | 4.0 | 0.00 | 0.00 | 0.00 | 64 | 1021.1 |
| 20260507180024 | 59 | 338 | 1.0 | 3.0 | 0.00 | 0.00 | 0.00 | 65 | 1021.3 |
| 20260507174537 | 59 | 209 | 1.0 | 2.0 | 0.00 | 0.00 | 0.00 | 66 | 1021.5 |
| 20260507173030 | 57 | 54 | 1.0 | 4.0 | 0.00 | 0.00 | 0.00 | 72 | 1021.6 |
| 20260507171525 | 56 | 101 | 1.0 | 5.0 | 0.00 | 0.00 | 0.00 | 72 | 1021.6 |
| 20260507170036 | 56 | 337 | 1.0 | 7.0 | 0.00 | 0.00 | 0.00 | 73 | 1021.6 |
| 20260507164522 | 55 | 319 | 2.0 | 6.0 | 0.00 | 0.00 | 0.00 | 73 | 1021.7 |
| 20260507163026 | 55 | 352 | 2.0 | 6.0 | 0.00 | 0.00 | 0.00 | 1021.8 | |
| 20260507161526 | 54 | 5 | 3.0 | 8.0 | 0.00 | 0.00 | 0.00 | 1021.7 | |
| 20260507160026 | 54 | 293 | 1.0 | 6.0 | 0.00 | 0.00 | 0.00 | 73 | 1021.7 |
| 20260507154523 | 54 | 317 | 2.0 | 8.0 | 0.00 | 0.00 | 0.00 | 73 | 1021.7 |
| 20260507153025 | 54 | 286 | 2.0 | 6.0 | 0.00 | 0.00 | 0.00 | 74 | 1021.7 |
| 20260507151526 | 53 | 332 | 1.0 | 4.0 | 0.00 | 0.00 | 0.00 | 76 | 1021.8 |
| 20260507150016 | 53 | 287 | 2.0 | 6.0 | 0.00 | 0.00 | 0.00 | 75 | 1021.8 |
| 20260507144520 | 53 | 334 | 2.0 | 4.0 | 0.00 | 0.00 | 0.00 | 75 | 1021.8 |
| 20260507143028 | 53 | 323 | 0.0 | 3.0 | 0.00 | 0.00 | 0.00 | 77 | 1021.7 |
| 20260507141525 | 52 | 298 | 1.0 | 2.0 | 0.00 | 0.00 | 0.00 | 77 | 1021.7 |
| 20260507140030 | 52 | 309 | 1.0 | 2.0 | 0.00 | 0.00 | 0.00 | 78 | 1021.6 |
| 20260507134520 | 52 | 327 | 0.0 | 2.0 | 0.00 | 0.00 | 0.00 | 78 | 1021.5 |
| 20260507133023 | 52 | 328 | 0.0 | 2.0 | 0.00 | 0.00 | 0.00 | 78 | 1021.2 |
| 20260507131535 | 52 | 331 | 0.0 | 2.0 | 0.00 | 0.00 | 0.00 | 77 | 1021.3 |
| 20260507130025 | 52 | 304 | 1.0 | 2.0 | 0.00 | 0.00 | 0.00 | 77 | 1021.3 |
| 20260507124521 | 53 | 301 | 0.0 | 2.0 | 0.00 | 0.00 | 0.00 | 78 | 1021.3 |
| 20260507123024 | 53 | 277 | 0.0 | 2.0 | 0.00 | 0.00 | 0.00 | 79 | 1021.4 |
| 20260507121526 | 53 | 281 | 0.0 | 2.0 | 0.00 | 0.00 | 0.00 | 79 | 1021.4 |
| 20260507120023 | 53 | 286 | 0.0 | 2.0 | 0.00 | 0.00 | 0.00 | 79 | 1021.6 |
| 20260507114515 | 53 | 279 | 0.0 | 2.0 | 0.00 | 0.00 | 0.00 | 78 | 1021.7 |
| 20260507113024 | 53 | 278 | 0.0 | 2.0 | 0.00 | 0.00 | 0.00 | 79 | 1021.7 |
| 20260507111507 | 53 | 284 | 0.0 | 2.0 | 0.00 | 0.00 | 0.00 | 79 | 1021.8 |
| 20260507110008 | 53 | 286 | 0.0 | 2.0 | 0.00 | 0.00 | 0.00 | 79 | 1021.9 |
| 20260507104516 | 53 | 294 | 0.0 | 2.0 | 0.00 | 0.00 | 0.00 | 79 | 1021.9 |
| 20260507103019 | 53 | 286 | 0.0 | 2.0 | 0.00 | 0.00 | 0.00 | 79 | 1022.0 |
| 20260507101524 | 54 | 315 | 0.0 | 2.0 | 0.00 | 0.00 | 0.00 | 79 | 1022.0 |
| 20260507100008 | 54 | 289 | 0.0 | 2.0 | 0.00 | 0.00 | 0.00 | 78 | 1022.1 |
| 20260507094512 | 54 | 279 | 1.0 | 2.0 | 0.00 | 0.00 | 0.00 | 78 | 1022.2 |
| 20260507093018 | 54 | 281 | 0.0 | 2.0 | 0.00 | 0.00 | 0.00 | 79 | 1022.2 |
| 20260507091524 | 54 | 286 | 0.0 | 2.0 | 0.00 | 0.00 | 0.00 | 78 | 1022.4 |
| 20260507090026 | 54 | 281 | 1.0 | 2.0 | 0.00 | 0.00 | 0.00 | 79 | 1022.5 |
| 20260507084513 | 54 | 331 | 1.0 | 2.0 | 0.00 | 0.00 | 0.00 | 78 | 1022.5 |
| 20260507083016 | 54 | 337 | 1.0 | 2.0 | 0.00 | 0.00 | 0.00 | 78 | 1022.5 |
| 20260507081534 | 54 | 275 | 0.0 | 3.0 | 0.00 | 0.00 | 0.00 | 78 | 1022.4 |
| 20260507080022 | 55 | 349 | 2.0 | 6.0 | 0.00 | 0.00 | 0.00 | 78 | 1022.4 |
| 20260507074544 | 55 | 360 | 2.0 | 5.0 | 0.00 | 0.00 | 0.00 | 77 | 1022.4 |
| 20260507073014 | 55 | 5 | 2.0 | 5.0 | 0.00 | 0.00 | 0.00 | 78 | 1022.3 |
| 20260507071520 | 55 | 350 | 2.0 | 4.0 | 0.00 | 0.00 | 0.00 | 79 | 1022.3 |
| 20260507070024 | 54 | 18 | 0.0 | 2.0 | 0.00 | 0.00 | 0.00 | 82 | 1022.3 |
| 20260507064524 | 54 | 109 | 0.0 | 2.0 | 0.00 | 0.00 | 0.00 | 84 | 1022.2 |
| 20260507063019 | 54 | 61 | 0.0 | 2.0 | 0.00 | 0.00 | 0.00 | 84 | 1022.2 |
| 20260507061518 | 54 | 104 | 1.0 | 2.0 | 0.00 | 0.00 | 0.00 | 83 | 1022.2 |